User: anonymous   Login
Location: Caltech
(34.1382°N, 118.1253°W)
Time: 19:31:18
(UTC-08:00)
Language:

BREEZE M DEB (TANK) - Orbit

View from above orbital plane
View from above orbital plane
View from above satellite
View from above satellite

Ground track
Ground track

The orbit data is extracted from the following two-line orbital elements,

1 33437U 08057B   15058.01364859  .00003768  00000-0  10334-2 0  9992
2 33437 049.5587 244.2794 5005123 185.3934 144.3513 05.56851507126812
Epoch (UTC): 27 February 2015 00:19:39
Eccentricity: 0.5005123
inclination: 49.5587°
perigee height: 338 km
apogee height: 13797 km
right ascension of ascending node: 244.2794°
argument of perigee: 185.3934°
revolutions per day: 5.56851507
mean anomaly at epoch: 144.3513°
orbit number at epoch: 12681

The dashed part of the orbit path shows where the satellite is in the earth's shadow,  

DLR